ROMMA est une association bénévole à but non lucratif. Votre soutien est indispensable : ADHERER à ROMMA ou FAIRE un DON

Chambon - (38, Isère)

Oisans (2460 m)   Longitude: 06° 10' 42" E   Latitude: 45° 01' 32" N Station partenaire n°803
 

Détail journalier du     <<     >>

Température Humidité Vent Dir Rafale Dir. rafale Neige 1 Neige 2
Heure (°C) (%) (km/h) (km/h) (cm) (cm)
01:00 -2.81002NE8O186233
02:00 -3.31002NE8NE186233
03:00 -3.61005NNE11NNE187233
04:00 -4.01003NNE10NNE187233
05:00 -3.81002OSO5O186233
06:00 -3.7963NE7NE183233
07:00 -2.9803NE6S185233
08:00 -2.2713S6S186233
09:00 3.5491S4S186232
10:00 3.4402E5E186232
11:00 4.1382ENE4ENE186233
12:00 2.5445ENE12OSO186233
13:00 3.3406SO14SO186233
14:00 3.1457SO14OSO186232
15:00 3.95311SO19SO186232
16:00 4.55215SO21SO186232
17:00 4.95114SO21SO186232
18:00 4.85114SO19SO185231
19:00 4.65110SO17SO185231
20:00 3.5588SO17OSO185231
21:00 1.8625NE12NE185231
22:00 1.6657NE14NE185231
23:00 1.6616NNE12NNE185231
minuit 1.0654SSO8SSO185231

Graphique du 17-04-2019

 

Serveur OMMA